Regional Weather Roundup
Issued by NWS

Home | Current Version | Previous Version | Graphics & Text | Print | Product List | Glossary On
Versions: 1 2 3 4 5 6 7 8 9 10 11 12 13 14 15 16 17 18 19 20 21 22 23 24 25 26 27 28 29 30 31 32 33 34 35 36 37 38 39 40 41 42 43 44 45 46 47 48 49 50
000
ASUS45 KBOU 070507
RWRCO

WEATHER ROUNDUP FOR COLORADO
NATIONAL WEATHER SERVICE DENVER/BOULDER CO
1000 PM MST FRI MAR 06 2015

NOTE: "FAIR" INDICATES FEW OR NO CLOUDS BELOW 12000 FEET WITH NO
SIGNIFICANT WEATHER AND/OR OBSTRUCTIONS TO VISIBILITY.

COZ001>005-013-030-031-070600-
...NORTHWEST COLORADO...

CITY           SKY/WX    TMP DP  RH WIND       PRES   REMARKS
CRAIG          CLEAR     27  19  72 CALM      30.39S
HAYDEN         CLEAR     27  14  59 E12       30.39S WCI  16
MEEKER         CLEAR     32  20  61 E7        30.39R WCI  26
MOUNT WERNER   NOT AVBL
STEAMBOAT SPGS CLEAR     24  15  67 CALM      30.41R
WALDEN         CLEAR     14   5  67 SE7       30.39R WCI   4
$$

COZ006>008-011-070600-
...WEST CENTRAL VALLEYS...

CITY           SKY/WX    TMP DP  RH WIND       PRES   REMARKS
GRAND JUNCTION CLEAR     37  20  50 E6        30.35R
MONTROSE       CLEAR     34  22  61 SE13      30.39R WCI  25
EAGLE          CLEAR     30  23  74 CALM      30.42R
RIFLE          CLEAR     32  22  66 CALM      30.38R
DELTA          CLEAR     36  24  64 E6        30.38R
NUCLA          CLEAR     34  19  55 E12       30.38S WCI  25
$$

COZ017>023-064>068-070600-
...SOUTHWEST COLORADO...

CITY           SKY/WX    TMP DP  RH WIND       PRES   REMARKS
DURANGO        CLEAR     29  20  69 CALM      30.33S
CORTEZ         CLEAR     30  24  78 NE5       30.33S WCI  25
PAGOSA SPRINGS CLEAR     23  16  73 CALM      30.36S
TELLURIDE      PTCLDY    29  13  52 SE6       30.40S WCI  23
WOLF CREEK PAS PTCLDY    23   3  42 NE6       30.47S WCI  16
$$

COZ009-010-012-014-032>034-037-058>063-070600-
...CENTRAL COLORADO...

CITY           SKY/WX    TMP DP  RH WIND       PRES   REMARKS
ASPEN          PTCLDY    25  13  60 SW10      30.40S WCI  15
BUENA VISTA    CLEAR     31  14  50 NW10      30.37R WCI  22
COPPER MTN     PTCLDY    21   9  58 SW6       30.44S WCI  14
BERTHOUD PASS  NOT AVBL
COTTONWOOD PAS CLEAR     32   5  32 W5        30.39R WCI  27
GUNNISON       PTCLDY    16   7  67 CALM      30.45S
KREMMLING      CLEAR     19  16  86 CALM      30.43R
LEADVILLE      PTCLDY    15   4  61 NE9       30.40R WCI   3
SALIDA         CLEAR     34  14  44 W6        30.44R WCI  28
SUNLIGHT       CLEAR     28  12  50 CALM        N/A
WILKERSON PASS PTCLDY    28   5  37 NW10G17   30.43S WCI  19
$$

COZ069>075-070600-
...SAN LUIS VALLEY/SANGRE DE CRISTO MOUNTAINS...

CITY           SKY/WX    TMP DP  RH WIND       PRES   REMARKS
ALAMOSA        CLEAR     24  20  84 CALM      30.37R
LA VETA PASS   CLEAR     28   3  34 S7        30.37S WCI  21
SAGUACHE       PTCLDY    30  16  55 N6        30.38R WCI  24
$$

COZ035-036-038>040-070600-
...NORTHERN COLORADO FRONT RANGE...

CITY           SKY/WX    TMP DP  RH WIND       PRES   REMARKS
DENVER INTL AP CLEAR     33  24  69 SW10      30.28R WCI  25
DMNS CITY PARK   N/A     36  22  56 S3        30.30R
AURORA         NOT AVBL
FRONT RANGE AP NOT AVBL
ERIE MUNI ARPT CLEAR     27  24  89 CALM      30.30R
BOULDER MUN AP CLEAR     34  21  60 SW6       30.30R WCI  29
CENTENNIAL     CLEAR     35  21  56 S3        30.29R
BROOMFIELD     CLEAR     37  19  48 CALM      30.29R
FORT COLLINS   CLEAR     37  18  44 N5        30.31R
LONGMONT       CLEAR     33  22  64 NW8       30.32R WCI  26
$$

COZ041-046-047-076>085-087-088-070600-
...PIKES PEAK/PALMER DIVIDE AND SOUTHERN FOOTHILLS...

CITY           SKY/WX    TMP DP  RH WIND       PRES   REMARKS
COLO. SPRINGS  CLEAR     30  20  66 N9        30.31R WCI  22
A. F. ACADEMY  NOT AVBL
ELLICOTT       NOT AVBL
FALCON         CLEAR     28  18  67 NW7       30.32S WCI  20
FORT CARSON    NOT AVBL
LIMON          CLEAR     21  17  84 N3        30.31R
MONUMENT HILL  CLEAR     30  19  64 SW8       30.31R WCI  23
TRINIDAD       CLEAR     34  26  72 W10       30.28R WCI  26
$$

COZ042>045-048>051-090-091-070600-
...NORTHEAST COLORADO...

CITY           SKY/WX    TMP DP  RH WIND       PRES   REMARKS
GREELEY ARPT   CLEAR     28  19  69 CALM      30.28R
AKRON          CLEAR     36  19  50 W5        30.28R
BURLINGTON     CLEAR     32  23  69 W8        30.28R WCI  25
WRAY           CLEAR     33  22  63 NW8       30.27R WCI  26
STERLING       CLEAR     32  23  69 SW7       30.26S WCI  26
HOLYOKE        CLEAR     43  21  42 NW8       30.25S
FORT MORGAN    CLEAR     32  19  59 W3        30.29S
$$

COZ086-089-092>099-070600-
...SOUTHEAST COLORADO...

CITY           SKY/WX    TMP DP  RH WIND       PRES   REMARKS
PUEBLO         CLEAR     33  26  75 N5        30.28R WCI  29
LA JUNTA       CLEAR     34  27  75 NE9       30.26R WCI  27
LAMAR          CLEAR     32  28  85 N5        30.25R WCI  27
SPRINGFIELD      N/A     31  24  75 SW6       30.26S WCI  25
$$


USA.gov is the U.S. government's official web portal to all federal, state and local government web resources and services.